Powrót do katalogu

COSMOS 2251 DEB

AktywnyLEO
NORAD 33805·DEBRIS·🇷🇺 Russia

Wystrzelony Jun 16, 1993 z Plesetsk Cosmodrome

Loading…

Następne Przeloty (najbliższe 24 godziny)

TLE

ŚwieżeSource: Space-Track

Epoka: Sep 14, 2026, 09:58 UTC

1 33805U 93036AW  26257.41539771  .00000526  00000-0  11730-3 0  9997
2 33805  74.0308 146.6340 0061833 264.8665  94.5440 14.58413796932452

Śledź COSMOS 2251 DEB w czasie rzeczywistym z AllMySat

Download on the App Store